User: anonymous   Login
Location: *
(46.1866°S, 178.5290°W)
Time: 23:28:57
(UTC+00:00)
Language:

Cosmos 1655 Rocket - Orbit

View from above orbital plane
View from above orbital plane
View from above satellite
View from above satellite

Ground track
Ground track

The orbit data is extracted from the following two-line orbital elements,

1 15752U 85041B   21204.28727160  .00000036  00000-0  22751-4 0  9990
2 15752  82.9499 282.1911 0022786 287.6268  72.2398 13.73119723811065
Epoch (UTC): 23 July 2021 06:53:40
Eccentricity: 0.0022786
inclination: 82.9499°
perigee height: 971 km
apogee height: 1005 km
right ascension of ascending node: 282.1911°
argument of perigee: 287.6268°
revolutions per day: 13.73119723
mean anomaly at epoch: 72.2398°
orbit number at epoch: 81106

The dashed part of the orbit path shows where the satellite is in the earth's shadow,  

DLR